[Iaude] MPEC S59: 2019 SE2 [a=1.26,e=0.35,i=10.0,H=24.1]

mpec at marsden.cfa.harvard.edu mpec at marsden.cfa.harvard.edu
Sun Sep 22 20:50:43 EDT 2019


M.P.E.C. 2019-S59                            Issued 2019 September 23, 00:48 UT

     The Minor Planet Electronic Circulars contain information on unusual
         minor planets and routine data on comets.  They are published
    on behalf of Division F of the International Astronomical Union by the
          Minor Planet Center, Smithsonian Astrophysical Observatory,
                          Cambridge, MA 02138, U.S.A.

             Prepared using the Tamkin Foundation Computer Network

                              MPC at CFA.HARVARD.EDU
            URL https://www.minorplanetcenter.net/    ISSN 1523-6714

                                    2019 SE2                                    


Observations:
     K19S02E* C2019 09 20.38672 00 35 16.41 +12 12 31.1          20.9 GVES059G96
     K19S02E  C2019 09 20.39223 00 35 16.63 +12 12 17.4                VES059G96
     K19S02E  C2019 09 20.39734 00 35 16.84 +12 12 04.0          21.4 GVES059G96
     K19S02E  C2019 09 20.40654 00 35 17.28 +12 11 40.6          20.8 GVES059G96
     K19S02E  C2019 09 20.48688 00 35 21.11 +12 08 12.7          20.8 GVES059G96
     K19S02E  C2019 09 20.48944 00 35 21.20 +12 08 06.0          21.8 GVES059G96
     K19S02E  C2019 09 20.49151 00 35 21.31 +12 08 00.1          21.4 GVES059G96
     K19S02E  C2019 09 20.49226 00 35 21.37 +12 07 58.4          21.2 GVES059G96
     K19S02E  C2019 09 22.19938 00 37 21.60 +10 48 37.6          20.4 GVES059G96
     K19S02E  C2019 09 22.20083 00 37 21.72 +10 48 32.8          20.4 GVES059G96
     K19S02E  C2019 09 22.20443 00 37 21.89 +10 48 22.7          20.6 GVES059G96
     K19S02E  C2019 09 22.20588 00 37 21.95 +10 48 18.5          20.4 GVES059G96
     K19S02E  C2019 09 22.48450 00 37 36.15 +10 33 59.2          20.3 GVES059I52
     K19S02E  C2019 09 22.49117 00 37 36.60 +10 33 38.1          19.6 GVES059I52
     K19S02E  C2019 09 22.49450 00 37 36.72 +10 33 28.0          19.8 GVES059I52

Observer details:
G96 Mt. Lemmon Survey.  Observer G. J. Leonard.  Measurers B. M. Africano, E. 
   J. Christensen, G. A. Farneth, D. C. Fuls, A. R. Gibbs, A. D. Grauer, H. 
   Groeller, R. A. Kowalski, S. M. Larson, G. J. Leonard, T. A. Pruyne, D. 
   Rankin, R. L. Seaman, F. C. Shelly.  1.5-m reflector + 10K CCD.
I52 Steward Observatory, Mt. Lemmon Station.  Observer D. C. Fuls.  Measurers 
   B. M. Africano, E. J. Christensen, G. A. Farneth, D. C. Fuls, A. R. Gibbs, 
   A. D. Grauer, H. Groeller, R. A. Kowalski, S. M. Larson, G. J. Leonard, T. 
   A. Pruyne, D. Rankin, R. L. Seaman, F. C. Shelly.  1.0-m reflector + CCD.

Orbital elements:
2019 SE2                                                 Earth MOID = 0.0487 AU
Epoch 2019 Apr. 27.0 TT = JDT 2458600.5                 Bell
M 201.76208              (2000.0)            P               Q
n   0.69764641     Peri.  269.96994     -0.07960809     -0.99672673
a   1.2590582      Node   184.66670     +0.96953358     -0.07413712
e   0.3461308      Incl.    9.96885     +0.23166178     -0.03224135
P   1.41           H   24.1           G   0.15           U   8
Residuals in seconds of arc
190920 G96  0.4+  0.3-    190920 G96  0.4-  0.3+    190922 G96  0.0   0.1+
190920 G96  0.1+  0.1+    190920 G96  0.4-  0.2-    190922 G96  0.3-  0.3+
190920 G96  0.1-  0.2-    190920 G96  0.1-  0.0     190922 I52  0.1-  0.2-
190920 G96  0.4+  0.0     190922 G96  0.2-  0.1-    190922 I52  0.7+  0.1-
190920 G96  0.2+  0.3+    190922 G96  0.4+  0.5-    190922 I52  0.4-  0.4+

Ephemeris:
2019 SE2                 a,e,i = 1.26, 0.35, 10                  q = 0.8233
Date    TT    R. A. (2000) Decl.     Delta      r    Elong.  Phase     V
2019 08 24    00 12 34.2 +18 09 09   0.3562  1.2968   137.6    31.7    23.8
...
2019 09 08    00 24 30.1 +17 13 11   0.2364  1.2172   149.4    24.9    22.5
...
2019 09 16    00 31 02.4 +14 43 22   0.1793  1.1730   157.2    19.4    21.7
...
2019 09 22    00 37 04.9 +10 59 05   0.1399  1.1393   164.3    13.8    20.9
2019 09 23    00 38 16.6 +10 06 59   0.1337  1.1336   165.6    12.7    20.8
2019 09 24    00 39 33.0 +09 09 22   0.1275  1.1280   166.9    11.6    20.6
...
2019 09 30    00 49 41.9 +00 40 26   0.09292 1.0940   173.1     6.3    19.6
...
2019 10 08    01 20 38.8 -24 57 49   0.05759 1.0490   148.7    29.7    19.3
...
2019 10 23    10 02 45.7 -66 54 09   0.07597 0.9680    67.0   108.9    22.5

A. U. Tomatic                (C) Copyright 2019 MPC           M.P.E.C. 2019-S59




More information about the Iaude mailing list